User: anonymous   Login
Location: Unspecified
(0.0000°N, 0.0000°E)
Time: 10:01:39
(UTC+00:00)
Language:

Vela 4A - Orbit

View from above orbital plane
View from above orbital plane
View from above satellite
View from above satellite

Ground track
Ground track

The orbit data is extracted from the following two-line orbital elements,

1 02765U 67040A   16274.61117382 -.00001521  00000-0  00000+0 0  9995
2 02765   6.7208  21.4073 4776857 179.2815 359.3588  0.21525035 38778
Epoch (UTC): 30 September 2016 14:40:05
Eccentricity: 0.4776857
inclination: 6.7208°
perigee height: 55050 km
apogee height: 167408 km
right ascension of ascending node: 21.4073°
argument of perigee: 179.2815°
revolutions per day: 0.21525035
mean anomaly at epoch: 359.3588°
orbit number at epoch: 3877

The dashed part of the orbit path shows where the satellite is in the earth's shadow,  

DLR